Location: Croissy-Beaubourg
(48.8283°N, 2.6696°E)
Time: 01:15:54
(UTC+00:00)

USA 215 - Pass Details

Date: 01 June 2022
Orbit: 1099 x 1108 km, 123.0° (Epoch: 10 June)

Event Time Altitude Azimuth Distance (km) Brightness Sun altitude
Rises 22:44:54 0° 58° (ENE) 3,927 6.4 -17.7°
Reaches altitude 10° 22:47:44 10° 68° (ENE) 2,967 5.6 -17.8°
Maximum altitude 22:53:27 32° 129° (SE) 1,807 4.0 -18.0°
Enters shadow 22:55:18 27° 158° (SSE) 1,959 4.0 -18.1°
